HYLAS 4

Last updated on Thu Aug 13 2026 00:03:01 GMT+0000 (Coordinated Universal Time)

1 43272U 18033B 26224.49410757 -.00000251 00000+0 00000+0 0 9993 2 43272 0.0598 272.5899 0000881 259.8321 292.8894 1.00270174 30637
UTC large
Height (km)
Speed (km/s)
/
Latitude / Longitude
Inclination (degrees)
Orbital Period (minutes)
Azimuth
Elevation
Range (km)
Doppler Factor

Next 0 passes for location: London (51.5072 / 0.1276)

No passes found over London.
HYLAS 4